Starlink 11362

operational
NORAD ID: 61535 Int'l Des: 2024-184 Owner: SPXS Country: US Constellation: starlink
LEOCIRCULAR

About Starlink 11362

Description loading...

Live Position

Loading 3D Globe...

Upcoming Passes

Altitude History

Altitude vs Time

uPlot chart will show altitude changes over time

Two-Line Element Set

1 61535U 24184D 25351.83901971 -.00001354 00000-0 -63207-5 0 9991
2 61535 53.1607 279.6207 0001399 95.8827 264.2351 15.69701216 67563
Epoch: Dec 17, 2025 • Age: 14 hours

Current Status

Altitude 364.4 km
Velocity 7.70 km/s
Sub-Earth Point 48.81°N, 155.73°E
Launch Date Oct 15, 2024
Age 1.1 years
Type internet

Technical Details

Classification Payload
Mass 960.00 kg
Dry Mass 910.00 kg
Total Mass 960.00 kg
Length 0.30 m
Diameter 4.10 m
Span 29.00 m
Shape Box + pan
Manufacturer SPXS
Bus Type Starlink V2MD
Phase Status In Orbit
Owner/State SPXS/US

Large Constellations

Loading constellations...